2019-064B

Last updated on Sept. 26, 2019, 12:02 a.m. UTC

1 44551U 19064B   19268.81975791  .02450785  12074-4  66563-3 0  9990
2 44551  51.6512 222.2248 0007875  39.6657 321.3982 16.27284071    35

Satellite is not in orbit.